Weather observations for the past three days for
Monroe, Custer Airport
Imperial (Metric)
Date Time (edt) Wind (mph) Vis. (mi.) Weather Sky Cond. Temperature (ºF) Relative Humidity Wind Chill (°F) Heat Index (°F) Pressure Precipitation (in)
Air Dwpt 6 hour altimeter (in) sea level (mb) 1 hr 3 hr 6 hr
Max. Min.
12 06:55 Calm 5.00 Fog/Mist OVC110 68.4 66.9 95% 30.12 0.0
12 06:35 Calm 5.00 Fog/Mist OVC110 67.6 66.2 95% 30.11 0.0
12 06:15 Calm 7.00 Overcast OVC110 68 66.2 94% 30.1 0.0
12 05:55 Calm 7.00 Overcast OVC110 67.1 65.3 94% 30.1 0.0
12 05:35 Calm 7.00 Overcast OVC110 67.1 65.3 94% 30.1 0.0
12 05:15 Calm 7.00 Overcast OVC120 66 64.4 95% 30.09 0.0
12 04:55 Calm 10.00 Mostly Cloudy BKN120 66 64.4 95% 30.09 0.0
12 04:35 Calm 7.00 Partly Cloudy SCT120 64.8 63.1 95% 30.09 0.0
12 04:15 Calm 4.00 Fog/Mist CLR 65.1 63.5 95% 30.09 0.0
12 03:55 Calm 5.00 Fog/Mist CLR 65.1 63.5 95% 30.09 0.0
12 03:35 Calm 7.00 Fair CLR 64.8 63.1 95% 30.09 0.0
12 03:15 Calm 5.00 Fog/Mist CLR 64.9 63.3 95% 30.1 0.0
12 02:55 Calm 10.00 Fair CLR 65.5 63.9 95% 30.1 0.0
12 02:35 S 5 10.00 Fair CLR 65.3 63.7 95% 30.1 0.0
12 02:15 Calm 10.00 Fair CLR 66.2 64.6 95% 30.09 0.0
12 01:55 Calm 10.00 Fair CLR 67.5 65.5 78.3 66.7 93% 30.1 0.0
12 01:35 S 3 10.00 Fair CLR 67.6 66 95% 30.1 0.0
12 01:15 Calm 10.00 Fair CLR 67.3 65.3 93% 30.1 0.0
12 00:55 Calm 10.00 Fair CLR 67.8 65.7 93% 30.1 0.0
12 00:15 Calm 10.00 Fair CLR 68.7 64.8 87% 30.1 0.0
11 23:55 Calm 10.00 Fair CLR 67.8 65.3 92% 30.09 0.0
11 23:35 Calm 10.00 Fair CLR 67.8 65.1 91% 30.09 0.0
11 23:15 Calm 10.00 Fair CLR 68 65.3 91% 30.09 0.0
11 22:55 Calm 10.00 Fair CLR 68 65.8 93% 30.09 0.0
11 22:35 Calm 10.00 Fair CLR 67.6 65.1 92% 30.09 0.0
11 22:15 Calm 10.00 Fair CLR 70.5 65.3 84% 30.09 0.0
11 21:55 Calm 10.00 Fair CLR 73.2 63.7 72% 30.08 0.0
11 21:35 Calm 10.00 Fair CLR 73.9 63.7 70% 30.08 0.0
11 21:15 Calm 10.00 Fair CLR 75 63 66% 77 30.08 0.0
11 20:55 SE 3 10.00 Fair CLR 75.6 62.6 64% 78 30.08 0.0
11 20:35 E 3 10.00 Fair CLR 76.5 63.5 64% 78 30.08 0.0
11 20:15 SE 3 10.00 Fair CLR 77 63.5 63% 79 30.07 0.0
11 19:55 SE 5 10.00 Fair CLR 77.9 63.1 83.5 77.7 61% 80 30.07 0.0
11 19:35 SE 5 10.00 Fair CLR 79.2 63.5 59% 81 30.07 0.0
11 19:15 Calm 10.00 Fair CLR 79.2 62.8 57% 81 30.06 0.0
11 18:55 Calm 10.00 Fair CLR 80.1 63.5 57% 82 30.06 0.0
11 18:35 SE 3 10.00 Fair CLR 79.2 63.7 59% 81 30.06 0.0
11 18:15 SE 6 10.00 Partly Cloudy SCT050 78.3 63.9 61% 80 30.05 0.0
11 17:55 S 3 10.00 Partly Cloudy SCT050 79.2 63.3 58% 81 30.05 0.0
11 17:35 NE 3 10.00 Mostly Cloudy BKN048 BKN055 82.2 61.2 49% 83 30.05 0.0
11 17:15 Calm 10.00 Partly Cloudy SCT048 82.6 60.1 47% 83 30.05 0.0
11 16:55 Calm 10.00 Fair CLR 81.5 59.9 48% 82 30.05 0.0
11 16:35 NW 6 10.00 Fair CLR 82.8 63.3 52% 84 30.06 0.0
11 16:15 Calm 10.00 Fair CLR 81.7 59.5 47% 82 30.05 0.0
11 15:55 NW 5 10.00 Fair CLR 81.3 62.1 52% 82 30.05 0.0
11 15:35 Calm 10.00 Partly Cloudy SCT046 SCT055 82.2 61.5 50% 83 30.06 0.0
11 15:15 NW 7 10.00 Partly Cloudy SCT046 82 62.2 51% 83 30.06 0.0
11 14:55 Calm 10.00 Fair CLR 81 59 47% 81 30.06 0.0
11 14:35 Calm 10.00 Partly Cloudy SCT041 SCT055 81.5 61.5 51% 82 30.07 0.0
11 14:15 Calm 10.00 Partly Cloudy SCT055 80.6 62.4 54% 82 30.06 0.0
11 13:55 NW 3 10.00 Partly Cloudy SCT050 81 64.2 81 66.4 57% 83 30.07 0.0
11 13:35 Calm 10.00 Partly Cloudy SCT043 79.7 61.3 54% 81 30.07 0.0
11 13:15 N 5 10.00 Partly Cloudy SCT043 80.6 63.3 56% 82 30.07 0.0
11 12:55 NW 8 10.00 Partly Cloudy SCT034 SCT043 78.6 62.6 58% 80 30.07 0.0
11 12:35 Calm 10.00 Partly Cloudy SCT029 SCT040 77.4 63.1 62% 79 30.07 0.0
11 12:15 NW 8 10.00 Partly Cloudy SCT029 77.5 63.5 62% 79 30.07 0.0
11 11:55 NW 3 10.00 Partly Cloudy SCT025 76.8 62.6 62% 79 30.07 0.0
11 11:35 Calm 10.00 Partly Cloudy SCT025 76.3 63 64% 78 30.07 0.0
11 11:15 Calm 10.00 Partly Cloudy SCT023 76.5 64 66% 78 30.07 0.0
11 10:55 Calm 10.00 Partly Cloudy SCT022 75.7 64.9 69% 77 30.07 0.0
11 10:35 Calm 10.00 Fair CLR 74.1 63.3 69% 30.07 0.0
11 10:15 Calm 10.00 Fair CLR 73 63.3 72% 30.06 0.0
11 09:55 NW 6 10.00 Fair CLR 72.3 64.4 76% 30.06 0.0
11 09:35 W 7 10.00 Fair CLR 71.8 64.2 77% 30.06 0.0
11 09:15 W 8 10.00 Fair CLR 71.1 64.8 81% 30.06 0.0
11 08:55 W 6 10.00 Fair CLR 69.4 64.4 84% 30.06 0.0
11 08:35 W 5 10.00 Fair CLR 68.2 64.4 88% 30.06 0.0
11 08:15 NW 6 10.00 Partly Cloudy SCT004 66.9 63.7 89% 30.05 0.0
11 07:55 W 8 10.00 Mostly Cloudy BKN004 66 64 66 60.8 93% 30.04 0.0
11 07:35 W 7 7.00 Overcast OVC004 64.8 63.1 95% 30.03 0.0
11 07:15 NW 7 7.00 Overcast OVC006 64.4 62.6 94% 30.03 0.0
11 06:55 W 7 10.00 Overcast OVC006 63.9 62.2 95% 30.02 0.0
11 06:35 W 9 7.00 Overcast OVC006 63 61.3 94% 30.01 0.0
11 06:15 W 5 10.00 Mostly Cloudy BKN006 62.6 60.8 94% 30.01 0.0
11 05:55 NW 6 7.00 Fair CLR 61.2 59.5 94% 30.01 0.0
11 05:35 Calm 7.00 Fair CLR 60.8 59.2 94% 30 0.0
11 05:15 W 3 10.00 Fair CLR 61.5 59.9 94% 29.99 0.0
11 04:55 W 5 10.00 Fair CLR 61.5 59.9 94% 29.99 0.0
11 04:35 W 6 10.00 Fair CLR 61.3 59.9 95% 29.98 0.0
11 04:15 W 5 10.00 Fair CLR 61 59.4 94% 29.98 0.0
11 03:55 W 7 10.00 Fair CLR 62.4 60.8 94% 29.97 0.0
11 03:35 W 8 10.00 Fair CLR 62.1 60.4 94% 29.96 0.0
11 03:15 W 6 10.00 Fair CLR 61.7 59.9 94% 29.96 0.0
11 02:55 W 3 10.00 Fair CLR 61.3 59.9 95% 29.96 0.0
11 02:35 W 6 10.00 Fair CLR 61.9 60.3 94% 29.96 0.0
11 02:15 W 7 10.00 Fair CLR 62.6 60.6 93% 29.95 0.0
11 01:55 W 8 10.00 Fair CLR 63.1 60.8 68.2 63 92% 29.95 0.0
11 01:35 W 8 10.00 Fair CLR 63.1 60.4 91% 29.94 0.0
11 01:15 W 9 10.00 Fair CLR 63 60.4 92% 29.94 0.0
11 00:55 W 8 10.00 Fair CLR 63.5 60.4 90% 29.94 0.0
11 00:35 W 9 10.00 Partly Cloudy SCT070 63.7 60.6 90% 29.94 0.0
11 00:15 W 8 10.00 Mostly Cloudy SCT060 BKN070 64.8 60.6 87% 29.94 0.0
10 23:55 W 8 10.00 Mostly Cloudy SCT060 BKN070 64.8 60.8 87% 29.93 0.0
10 23:35 W 8 10.00 Mostly Cloudy SCT027 SCT034 BKN070 65.5 61 85% 29.93 0.0
10 23:15 W 8 10.00 Overcast SCT027 OVC035 65.8 61 84% 29.92 0.0
10 22:55 W 9 10.00 Overcast BKN035 BKN060 OVC075 65.8 61.2 85% 29.92 0.0
10 22:35 W 8 10.00 Mostly Cloudy SCT023 SCT037 BKN046 66 61.2 84% 29.9 0.0
10 22:15 W 8 10.00 Overcast BKN025 OVC042 66.7 61.5 83% 29.9 0.0
10 21:55 W 7 10.00 Overcast BKN027 BKN044 OVC050 66.6 61.7 84% 29.89 0.0
10 21:35 W 8 10.00 Mostly Cloudy SCT037 BKN050 66.7 61.5 83% 29.87 0.0
10 21:15 W 9 10.00 Overcast OVC037 67.5 61.7 82% 29.87 0.0
10 20:55 NW 10 10.00 Overcast SCT022 BKN030 OVC035 67.8 61.7 81% 29.86 0.0
10 20:35 NW 13 G 17 10.00 Overcast SCT022 OVC028 67.6 61.9 82% 29.86 0.0
10 20:15 NW 12 G 18 10.00 Overcast OVC028 68 61.9 81% 29.85 0.0
10 19:55 NW 14 G 18 10.00 Overcast OVC026 68 62.1 69.3 64.8 81% 29.84 0.0 0.23
10 19:35 NW 13 G 18 10.00 Overcast OVC026 68.4 61.3 78% 29.84 0.0
10 19:15 NW 14 G 21 10.00 Overcast OVC026 68.5 61 77% 29.83 0.0
10 18:55 NW 16 G 23 10.00 Overcast OVC024 68.9 60.8 76% 29.81 0.0
10 18:35 NW 15 G 25 10.00 Overcast OVC024 68.2 60.8 77% 29.8 0.0
10 18:15 NW 17 G 25 10.00 Overcast OVC020 68.2 61.3 79% 29.79 0.0
10 17:55 NW 14 G 23 10.00 Overcast OVC020 68 61 78% 29.78 0.0
10 17:35 NW 21 G 30 10.00 Overcast and Breezy OVC020 68 61.2 79% 29.76 0.0
10 17:15 N 15 G 30 10.00 Overcast OVC020 68.9 61.2 76% 29.74 0.0
10 16:55 NW 16 G 30 10.00 Overcast OVC015 67.1 60.8 80% 29.72 0.0 0.23
10 16:35 NW 15 G 31 10.00 Overcast OVC015 66.6 61.2 83% 29.72 0.0
10 16:15 NW 16 G 26 10.00 Overcast OVC015 66.9 61.5 83% 29.71 0.0
10 15:55 NW 16 G 24 10.00 Overcast OVC013 67.3 62.4 85% 29.7 0.0
10 15:35 NW 17 G 25 10.00 Overcast OVC013 66.2 62.6 88% 29.69 0.0
10 15:15 NW 16 G 25 10.00 Light Drizzle OVC011 65.5 63.1 92% 29.68 0.0
10 14:55 N 14 G 22 7.00 Light Rain OVC011 65.3 63.3 93% 29.66 0.0 0.23
10 14:35 NW 13 G 20 4.00 Rain OVC007 65.3 63.7 95% 29.65 0.0 0.22
10 14:15 N 13 G 18 2.50 Heavy Rain OVC007 64.9 63.3 95% 29.65 0.0 0.12
10 13:55 N 14 G 21 3.00 Heavy Rain OVC007 65.3 63.7 76.1 65.3 95% 29.64 0.0 0.08 0.14
10 13:35 N 13 G 20 4.00 Rain OVC007 65.7 64 95% 29.63 0.0 0.03
10 13:15 N 14 G 21 5.00 Rain OVC007 65.8 64.4 95% 29.62 0.0 0.01
10 12:55 N 10 G 17 10.00 Light Rain OVC007 65.8 64.4 95% 29.61 0.0 0.02
10 12:35 N 10 G 22 10.00 Rain BKN007 OVC014 66.2 64.4 94% 29.61 0.0 0.01
10 12:15 N 13 G 18 10.00 Overcast BKN009 OVC014 68.7 66.4 92% 29.59 0.0
10 11:55 SW 6 7.00 Rain SCT010 BKN015 OVC032 73.2 71.6 95% 29.59 0.0 0.04
10 11:35 S 12 G 21 10.00 Overcast SCT019 BKN033 OVC041 75 69.6 83% 75 29.59 0.0 0.01
10 11:15 S 8 10.00 Overcast BKN019 BKN025 OVC040 75.6 70.9 85% 76 29.58 0.0
10 10:55 S 12 G 16 10.00 Light Rain OVC017 74.1 70.3 88% 29.59 0.0
10 10:35 S 7 7.00 Light Rain OVC015 73.4 70.7 91% 29.59 0.0
10 10:15 S 13 G 17 10.00 Overcast OVC017 73.9 69.6 86% 29.59 0.0
10 09:55 S 10 10.00 Overcast OVC019 74.1 69.8 86% 29.59 0.0
10 09:35 S 14 10.00 Overcast BKN017 BKN023 OVC034 73.6 69.3 86% 29.59 0.0
10 09:15 S 13 10.00 Overcast SCT014 BKN034 OVC040 73.4 69.6 88% 29.59 0.0
10 08:55 S 13 G 18 10.00 Overcast SCT013 SCT026 OVC038 73.6 69.8 88% 29.59 0.0
10 08:35 S 15 10.00 Overcast BKN013 OVC036 73.4 70 89% 29.59 0.0
10 08:15 S 15 10.00 Overcast OVC013 73.6 70.2 89% 29.59 0.0
10 07:55 S 14 G 20 10.00 Overcast OVC013 73.4 70.9 73.8 69.3 92% 29.59 0.0 0.89
10 07:35 S 12 G 18 10.00 Overcast BKN011 OVC050 73.4 71.6 94% 29.59 0.0
10 07:15 S 7 10.00 Overcast SCT011 BKN020 OVC050 73.6 71.6 94% 29.59 0.0
10 06:55 SE 6 10.00 Light Rain SCT009 BKN018 OVC023 73.6 72 95% 29.6 0.0
10 06:35 SE 6 10.00 Overcast SCT009 BKN012 OVC016 72.9 71.4 95% 29.6 0.0
10 06:15 E 3 10.00 Overcast SCT007 BKN012 OVC016 72.1 70.5 95% 29.61 0.0
10 05:55 E 10 G 16 10.00 Overcast BKN007 OVC014 71.8 70.2 95% 29.61 0.0
10 05:35 E 6 10.00 Overcast SCT006 OVC012 70.7 68.9 94% 29.62 0.0
10 05:15 E 8 10.00 Overcast BKN006 OVC012 70.2 68.5 95% 29.62 0.0
10 04:55 N 6 7.00 Light Rain OVC006 70 68.4 95% 29.63 0.0 0.2 0.89
10 04:35 E 8 G 17 4.00 Rain OVC008 69.8 68 94% 29.64 0.0 0.19
10 04:15 E 9 G 26 5.00 Rain OVC008 69.4 68 95% 29.63 0.0 0.07
10 03:55 NE 7 G 22 4.00 Heavy Rain OVC006 69.3 67.6 95% 29.64 0.0 0.35
10 03:35 NE 12 G 21 4.00 Rain BKN006 OVC014 69.8 68 94% 29.65 0.0 0.27
10 03:15 NE 9 G 23 4.00 Heavy Rain BKN008 BKN027 OVC041 69.8 68.2 95% 29.66 0.0 0.12
10 02:55 NE 15 G 24 5.00 Rain BKN008 BKN028 OVC033 70.2 68.5 95% 29.68 0.0 0.31
10 02:35 NE 13 G 20 3.00 Heavy Rain SCT009 BKN024 OVC042 70.9 69.3 95% 29.71 0.0 0.23
10 02:15 NE 6 4.00 Heavy Rain SCT015 BKN033 OVC042 71.6 69.8 94% 29.74 0.0 0.08
10 01:55 NE 6 5.00 Rain BKN039 OVC047 71.6 69.8 75.9 71.2 94% 29.75 0.0 0.11 0.31
10 01:35 NE 7 5.00 Rain SCT017 SCT031 OVC050 71.2 69.8 95% 29.75 0.0 0.09
10 01:15 NE 8 5.00 Rain SCT019 BKN044 OVC055 71.6 69.8 94% 29.76 0.0 0.04
10 00:55 Calm 7.00 Light Rain SCT021 BKN044 OVC060 71.8 70 94% 29.78 0.0 0.14
10 00:35 NE 5 5.00 Rain SCT040 OVC060 71.6 69.8 94% 29.77 0.0 0.12
10 00:15 Calm 2.50 Heavy Rain BKN039 BKN065 OVC080 72.1 69.6 92% 29.79 0.0 0.03
09 23:55 NE 5 10.00 Overcast SCT039 BKN065 OVC080 72.1 69.6 92% 29.79 0.0
09 23:35 NE 6 10.00 Overcast OVC065 72.1 70 93% 29.8 0.0
09 23:15 N 5 7.00 Mostly Cloudy BKN075 BKN090 71.8 70.2 95% 29.82 0.0
09 22:55 N 3 10.00 Mostly Cloudy SCT080 BKN100 BKN120 72.3 70.3 94% 29.83 0.0 0.06
09 22:35 NE 3 10.00 Overcast BKN080 OVC120 72.5 70.7 94% 29.83 0.0
09 22:15 N 3 10.00 Mostly Cloudy SCT080 BKN120 72.7 71.1 95% 29.84 0.0
09 21:55 N 5 7.00 Light Rain SCT035 SCT046 SCT060 72.9 71.1 94% 29.84 0.0 0.06
09 21:35 N 5 5.00 Rain SCT033 BKN046 OVC070 73.4 71.8 95% 29.85 0.0 0.05
09 21:15 NW 5 7.00 Rain SCT036 BKN070 OVC085 74.3 72.5 94% 29.87 0.0 0.01
09 20:55 N 3 10.00 Light Rain SCT050 SCT060 BKN110 74.1 72.3 94% 29.87 0.0
09 20:35 Calm 10.00 Light Drizzle SCT090 SCT120 73.8 71.4 92% 29.87 0.0
09 20:15 Calm 10.00 Light Rain BKN090 BKN120 74.3 72 92% 29.88 0.0
09 19:55 Calm 10.00 Light Rain BKN029 BKN046 OVC090 76.3 72.1 81.9 76.1 87% 77 29.89 0.0
09 19:35 Calm 10.00 Overcast SCT029 OVC090 76.5 72.1 87% 77 29.89 0.0
09 19:15 Calm 10.00 Overcast OVC090 76.5 72.1 87% 77 29.89 0.0
09 18:55 Calm 10.00 Light Rain OVC090 78.3 70 76% 81 29.89 0.0
09 18:35 Calm 10.00 Light Rain OVC090 77.5 69.8 77% 79 29.89 0.0
09 18:15 Calm 10.00 Overcast OVC100 78.6 68.4 71% 81 29.9 0.0
09 17:55 Calm 10.00 Overcast OVC100 79.7 68.7 69% 82 29.9 0.0
09 17:35 Calm 10.00 Light Rain OVC100 79.5 69.4 71% 82 29.9 0.0
09 17:15 Calm 10.00 Light Rain SCT023 SCT039 OVC110 79.2 70 74% 82 29.91 0.0
09 16:55 SE 3 10.00 Mostly Cloudy SCT023 BKN029 BKN037 79.7 71.2 75% 83 29.91 0.0
09 16:35 S 3 10.00 Light Rain BKN028 BKN036 BKN044 80.2 70.9 73% 84 29.92 0.0
09 16:15 Calm 10.00 Light Rain SCT027 BKN035 BKN075 80.2 70.2 71% 84 29.92 0.0
09 15:55 Calm 10.00 Light Rain SCT031 SCT035 BKN041 80.8 69.8 69% 84 29.92 0.0
09 15:35 S 3 10.00 Light Rain SCT034 SCT041 BKN047 81.1 69.6 68% 85 29.93 0.0
09 15:15 S 5 10.00 Partly Cloudy SCT023 SCT033 SCT040 80.4 69.3 69% 83 29.93 0.0
09 14:55 S 8 10.00 Mostly Cloudy BKN023 BKN030 BKN040 80.1 70 71% 83 29.94 0.0
09 14:35 S 5 10.00 Mostly Cloudy SCT025 SCT029 BKN120 80.1 70 71% 83 29.94 0.0
09 14:15 S 5 10.00 Light Rain SCT110 79.9 69.8 71% 83 29.95 0.0
09 13:55 S 3 10.00 Partly Cloudy SCT032 SCT039 SCT110 79.3 70 79.3 72.3 73% 82 29.95 0.0
09 13:35 Calm 10.00 Light Rain SCT033 BKN040 BKN047 78.6 70 75% 81 29.95 0.0
09 13:15 S 5 10.00 Light Rain SCT032 SCT041 SCT048 78.8 69.8 74% 81 29.95 0.0
09 12:55 S 6 10.00 Light Rain SCT035 SCT050 BKN060 78.1 70.2 77% 80 29.95 0.0
09 12:35 S 6 10.00 Partly Cloudy SCT033 SCT044 SCT060 78.1 69.3 74% 80 29.96 0.0
09 12:15 S 7 10.00 Light Rain SCT045 SCT065 BKN080 78.4 69.8 75% 81 29.96 0.0
09 11:55 Calm 10.00 Partly Cloudy SCT120 77.9 68.4 73% 80 29.96 0.0
09 11:35 S 6 10.00 Partly Cloudy SCT100 77.4 69.4 77% 79 29.96 0.0
09 11:15 Calm 10.00 Mostly Cloudy SCT037 SCT046 BKN110 76.6 69.1 78% 78 29.96 0.0
09 10:55 Calm 10.00 Light Rain SCT044 SCT070 OVC100 76.3 68.9 78% 78 29.96 0.0
09 10:35 Calm 10.00 Light Drizzle SCT075 BKN100 76.3 68.4 77% 78 29.96 0.0
09 10:15 Calm 10.00 Overcast SCT080 OVC100 75.4 68.4 79% 76 29.95 0.0
09 09:55 Calm 10.00 Light Drizzle SCT055 SCT075 OVC100 75.4 68.4 79% 76 29.96 0.0
09 09:35 Calm 10.00 Light Rain SCT065 BKN090 OVC110 75 68.4 80% 76 29.96 0.0
09 09:15 S 3 10.00 Overcast OVC110 74.3 68 81% 29.95 0.0
09 08:55 SW 3 10.00 Mostly Cloudy BKN120 73.9 67.5 80% 29.95 0.0
09 08:35 S 3 10.00 Mostly Cloudy BKN120 73.4 67.5 82% 29.95 0.0
09 08:15 Calm 10.00 Overcast OVC120 72.7 67.5 84% 29.95 0.0
09 07:55 S 9 10.00 Mostly Cloudy BKN120 72.1 67.6 75.7 68 86% 29.94 0.0
09 07:35 S 9 10.00 Partly Cloudy SCT120 71.1 68 90% 29.94 0.0
Date Time (edt) Wind (mph) Vis. (mi.) Weather Sky Cond. Air Dwpt Max. Min. Relative Humidity Wind Chill (°F) Heat Index (°F) altimeter (in) sea level (mb) 1 hr 3 hr 6 hr
6 hour
Temperature (ºF) Pressure Precipitation (in)